| time (UTC) | temp F | wind direction | speed knots | gust knots | rain 1hr in | rain 24hr in | rain mn in | humidity % | barometer mb |
| 20260505083054 | 55 | 0 | 0.0 | 0.0 | 0.00 | 0.00 | 0.00 | 83 | 1010.6 |
| 20260505081537 | 55 | 0 | 0.0 | 0.9 | 0.00 | 0.00 | 0.00 | 84 | 1010.5 |
| 20260505080046 | 56 | 30 | 0.0 | 0.9 | 0.00 | 0.00 | 0.00 | 82 | 1010.3 |
| 20260505074535 | 58 | 0 | 0.0 | 0.0 | 0.00 | 0.00 | 0.00 | 78 | 1010.6 |
| 20260505073045 | 58 | 0 | 0.0 | 0.9 | 0.00 | 0.00 | 0.00 | 77 | 1010.3 |
| 20260505071547 | 58 | 0 | 0.0 | 2.6 | 0.00 | 0.00 | 0.00 | 77 | 1010.7 |
| 20260505070040 | 57 | 34 | 0.0 | 1.7 | 0.00 | 0.00 | 0.00 | 79 | 1010.8 |
| 20260505064540 | 57 | 0 | 0.0 | 0.9 | 0.00 | 0.00 | 0.00 | 80 | 1011.0 |
| 20260505063042 | 56 | 0 | 0.0 | 0.9 | 0.00 | 0.00 | 0.00 | 81 | 1011.1 |
| 20260505061543 | 57 | 34 | 0.0 | 0.9 | 0.00 | 0.00 | 0.00 | 81 | 1011.3 |
| 20260505060045 | 58 | 34 | 0.0 | 0.9 | 0.00 | 0.00 | 0.00 | 79 | 1011.5 |
| 20260505054546 | 58 | 0 | 0.0 | 0.0 | 0.00 | 0.00 | 0.00 | 77 | 1011.6 |
| 20260505053047 | 60 | 0 | 0.0 | 0.9 | 0.00 | 0.00 | 0.00 | 76 | 1011.6 |
| 20260505051543 | 61 | 34 | 0.0 | 0.9 | 0.00 | 0.00 | 0.00 | 71 | 1011.6 |
| 20260505041539 | 64 | 28 | 0.0 | 1.7 | 0.00 | 0.00 | 0.00 | 63 | 1011.2 |
| 20260505040040 | 65 | 1 | 0.9 | 3.5 | 0.00 | 0.00 | 0.00 | 62 | 1011.1 |
| 20260505034542 | 65 | 37 | 0.9 | 2.6 | 0.00 | 0.00 | 0.00 | 61 | 1011.2 |
| 20260505033043 | 66 | 35 | 0.9 | 3.5 | 0.00 | 0.00 | 0.00 | 60 | 1011.2 |
| 20260505031552 | 66 | 53 | 2.6 | 7.0 | 0.00 | 0.00 | 0.00 | 59 | 1010.9 |
| 20260505030044 | 67 | 39 | 1.7 | 4.3 | 0.00 | 0.00 | 0.00 | 58 | 1010.8 |
| 20260505024550 | 67 | 4 | 0.9 | 4.3 | 0.00 | 0.00 | 0.00 | 58 | 1010.9 |
| 20260505023047 | 67 | 36 | 0.9 | 3.5 | 0.00 | 0.00 | 0.00 | 56 | 1010.7 |
| 20260505021540 | 68 | 23 | 0.9 | 3.5 | 0.00 | 0.00 | 0.00 | 55 | 1010.5 |
| 20260505020041 | 69 | 36 | 0.9 | 3.5 | 0.00 | 0.00 | 0.00 | 54 | 1010.4 |
| 20260505014601 | 69 | 18 | 1.7 | 3.5 | 0.00 | 0.00 | 0.00 | 53 | 1010.5 |
| 20260505013043 | 70 | 37 | 0.9 | 3.5 | 0.00 | 0.00 | 0.00 | 53 | 1010.6 |
| 20260505011550 | 70 | 36 | 0.9 | 3.5 | 0.00 | 0.00 | 0.00 | 52 | 1010.6 |
| 20260505010040 | 71 | 46 | 1.7 | 6.1 | 0.00 | 0.00 | 0.00 | 51 | 1010.6 |
| 20260505004537 | 72 | 35 | 0.9 | 2.6 | 0.00 | 0.00 | 0.00 | 50 | 1010.6 |
| 20260505003043 | 73 | 35 | 0.9 | 6.1 | 0.00 | 0.00 | 0.00 | 48 | 1010.6 |
| 20260505001545 | 74 | 26 | 2.6 | 7.0 | 0.00 | 0.00 | 0.00 | 46 | 1010.6 |
| 20260505000052 | 75 | 79 | 3.5 | 8.7 | 0.00 | 0.00 | 0.00 | 46 | 1010.7 |
| 20260504234542 | 76 | 52 | 3.5 | 7.0 | 0.00 | 0.00 | 0.00 | 44 | 1010.6 |
| 20260504233041 | 77 | 79 | 2.6 | 8.7 | 0.00 | 0.00 | 0.00 | 43 | 1010.6 |
| 20260504231541 | 78 | 56 | 3.5 | 9.6 | 0.00 | 0.00 | 0.00 | 42 | 1010.8 |
| 20260504230045 | 78 | 46 | 6.1 | 13.9 | 0.00 | 0.00 | 0.00 | 42 | 1010.7 |
| 20260504224545 | 78 | 79 | 5.2 | 10.4 | 0.00 | 0.00 | 0.00 | 43 | 1010.7 |
| 20260504223041 | 78 | 36 | 5.2 | 13.0 | 0.00 | 0.00 | 0.00 | 42 | 1010.7 |
| 20260504221539 | 79 | 15 | 5.2 | 11.3 | 0.00 | 0.00 | 0.00 | 42 | 1010.6 |
| 20260504220040 | 79 | 27 | 5.2 | 13.0 | 0.00 | 0.00 | 0.00 | 42 | 1010.6 |
| 20260504214542 | 79 | 53 | 6.1 | 19.1 | 0.00 | 0.00 | 0.00 | 42 | 1010.3 |
| 20260504213042 | 79 | 65 | 4.3 | 15.6 | 0.00 | 0.00 | 0.00 | 42 | 1010.3 |
| 20260504211542 | 79 | 15 | 4.3 | 13.0 | 0.00 | 0.00 | 0.00 | 42 | 1010.3 |
| 20260504210055 | 79 | 17 | 7.8 | 16.5 | 0.00 | 0.00 | 0.00 | 39 | 1010.6 |
| 20260504204553 | 79 | 50 | 7.8 | 14.8 | 0.00 | 0.00 | 0.00 | 40 | 1010.8 |
| 20260504203038 | 79 | 51 | 6.1 | 12.2 | 0.00 | 0.00 | 0.00 | 42 | 1010.9 |
| 20260504201542 | 79 | 56 | 6.1 | 13.9 | 0.00 | 0.00 | 0.00 | 42 | 1011.1 |
| 20260504200043 | 78 | 59 | 6.1 | 14.8 | 0.00 | 0.00 | 0.00 | 44 | 1011.4 |
| 20260504194540 | 78 | 18 | 7.8 | 16.5 | 0.00 | 0.00 | 0.00 | 46 | 1011.2 |
| 20260504193040 | 78 | 82 | 6.1 | 12.2 | 0.00 | 0.00 | 0.00 | 46 | 1011.5 |
| 20260504191543 | 78 | 353 | 5.2 | 13.0 | 0.00 | 0.00 | 0.00 | 46 | 1011.8 |
| 20260504190038 | 78 | 33 | 4.3 | 13.0 | 0.00 | 0.00 | 0.00 | 45 | 1012.0 |
| 20260504184543 | 78 | 68 | 4.3 | 14.8 | 0.00 | 0.00 | 0.00 | 48 | 1011.9 |
| 20260504183040 | 78 | 46 | 5.2 | 15.6 | 0.00 | 0.00 | 0.00 | 47 | 1012.2 |
| 20260504181537 | 77 | 45 | 4.3 | 15.6 | 0.00 | 0.00 | 0.00 | 47 | 1012.2 |
| 20260504180039 | 77 | 40 | 7.0 | 13.9 | 0.00 | 0.00 | 0.00 | 48 | 1012.5 |
| 20260504174538 | 77 | 346 | 5.2 | 13.9 | 0.00 | 0.00 | 0.00 | 48 | 1012.6 |
| 20260504173041 | 76 | 37 | 7.0 | 14.8 | 0.00 | 0.00 | 0.00 | 48 | 1012.7 |
| 20260504171539 | 76 | 11 | 5.2 | 11.3 | 0.00 | 0.00 | 0.00 | 50 | 1013.0 |